Flag for Brazil Weather past 2 weeks in Recife, Pernambuco, Brazil

Now
75 °F

Passing clouds.


Feels Like: 74 °F
Forecast: 78 / 86 °F
Wind: 2 mph from Northwest

Location: Recife Aeroporto


UV Index: 10 (Very high)

Visibility: N/A


Pressure: 29.83 "Hg

Humidity: 94%

Dew point: 73 °F

Location of RecifeLocation

Historic Weather in Recife

°F

Recife temperature yesterday

Maximum temperature yesterday: 86 °F (at 9:00 AM)
Minimum temperature yesterday: 81 °F (at 12:00 AM)
Average temperature yesterday: 83 °F

Past Weeks' High & Low Weather Summary

 TemperatureHumidityPressure
High88 °F (Apr 10, 10:00 AM)100% (Apr 14, 3:00 AM)29.98 "Hg (Apr 14, 3:00 AM)
Low73 °F (Apr 22, 5:00 AM)62% (Apr 15, 11:00 AM)29.83 "Hg (Apr 10, 4:00 PM)
Average82 °F77%29.89 "Hg
* Reported Apr 10 3:00 AM — Apr 25 3:00 AM, Recife, Weather by CustomWeather, © 2014

Note: Actual official high and low records may vary slightly from our data, if they occured in-between our weather recording intervals... More about our weather records

Advertising

Historic Weather Conditions — Data for Previous 24 hours

 ConditionsComfort  
Time TempWeatherWind HumidityBarometerVisibility
3:00 AM
Apr 25
75 °FPassing clouds.2 mph94%29.83 "HgN/A
2:00 AM75 °FClear.3 mph89%29.83 "Hg10 mi
1:00 AM77 °FClear.2 mph89%29.83 "Hg10 mi
12:00 AM81 °FClear.3 mph79%29.86 "Hg10 mi
11:00 PM
Apr 24
82 °FClear.3 mph70%29.86 "Hg10 mi
10:00 PM82 °FClear.3 mph74%29.89 "Hg10 mi
9:00 PM82 °FPassing clouds.5 mph74%29.89 "HgN/A
8:00 PM82 °FPassing clouds.6 mph74%29.89 "HgN/A
7:00 PM82 °FPassing clouds.7 mph74%29.86 "HgN/A
6:00 PM84 °FPassing clouds.8 mph66%29.86 "HgN/A
5:00 PM84 °FSunny.7 mph66%29.83 "Hg10 mi
4:00 PM86 °FPassing clouds.8 mph66%29.83 "HgN/A
3:00 PM86 °FPassing clouds.10 mph62%29.83 "HgN/A
2:00 PM86 °FPassing clouds.9 mph66%29.83 "HgN/A
1:00 PM86 °FScattered clouds.10 mph70%29.86 "HgN/A
12:00 PM84 °FBroken clouds.8 mph74%29.89 "HgN/A
11:00 AM84 °FScattered showers. Partly sunny.8 mph74%29.92 "HgN/A
10:00 AM86 °FPartly sunny.10 mph66%29.95 "HgN/A
9:00 AM86 °FPartly sunny.8 mph70%29.95 "HgN/A
8:00 AM82 °FScattered clouds.6 mph79%29.95 "HgN/A
7:00 AM82 °FPassing clouds.2 mph79%29.92 "HgN/A
6:00 AM81 °FPassing clouds.3 mph79%29.89 "HgN/A
5:00 AM81 °FPassing clouds.5 mph79%29.89 "HgN/A
4:00 AM81 °FPassing clouds.6 mph79%29.86 "HgN/A
Weather by CustomWeather, © 2014

See weather overview